Time,TemperatureF,DewpointF,PressureIn,WindDirection,WindDirectionDegrees,WindSpeedMPH,WindSpeedGustMPH,Humidity,HourlyPrecipIn,Conditions,Clouds,dailyrainin,SoftwareType,DateUTC
2013-06-13 00:06:00,56.6,53.0,29.75,North,10,9.0,13.0,86,0.00,,,0.00,weatherlink.com 1.10,2013-06-13 04:06:00,
2013-06-13 00:21:00,56.2,53.0,29.75,North,5,8.0,10.0,88,0.00,,,0.00,weatherlink.com 1.10,2013-06-13 04:21:00,
2013-06-13 00:36:00,55.9,53.0,29.75,NNE,26,8.0,8.0,89,0.00,,,0.00,weatherlink.com 1.10,2013-06-13 04:36:00,
2013-06-13 00:51:00,55.7,53.0,29.75,NE,34,8.0,9.0,89,0.00,,,0.00,weatherlink.com 1.10,2013-06-13 04:51:00,
2013-06-13 01:06:00,55.7,53.0,29.75,NE,49,6.0,8.0,89,0.00,,,0.00,weatherlink.com 1.10,2013-06-13 05:06:00,
2013-06-13 01:21:00,55.6,53.0,29.75,NE,49,6.0,7.0,89,0.00,,,0.00,weatherlink.com 1.10,2013-06-13 05:21:00,
2013-06-13 01:36:00,55.8,52.0,29.75,NE,36,8.0,10.0,88,0.01,,,0.01,weatherlink.com 1.10,2013-06-13 05:36:00,
2013-06-13 01:51:00,55.4,52.0,29.74,NE,39,6.0,8.0,89,0.02,,,0.02,weatherlink.com 1.10,2013-06-13 05:51:00,
2013-06-13 02:06:00,55.4,52.0,29.74,NNE,29,7.0,9.0,89,0.02,,,0.02,weatherlink.com 1.10,2013-06-13 06:06:00,
2013-06-13 02:21:00,55.1,52.0,29.74,NE,43,4.0,8.0,89,0.03,,,0.03,weatherlink.com 1.10,2013-06-13 06:21:00,
2013-06-13 02:36:00,54.9,52.0,29.75,NNE,18,2.0,5.0,90,0.03,,,0.04,weatherlink.com 1.10,2013-06-13 06:36:00,
2013-06-13 02:51:00,54.7,52.0,29.75,NNW,329,2.0,5.0,91,0.02,,,0.04,weatherlink.com 1.10,2013-06-13 06:51:00,
2013-06-13 03:06:00,54.2,52.0,29.75,West,271,0.0,2.0,92,0.02,,,0.04,weatherlink.com 1.10,2013-06-13 07:06:00,
2013-06-13 03:21:00,53.7,52.0,29.76,West,269,0.0,1.0,93,0.01,,,0.04,weatherlink.com 1.10,2013-06-13 07:21:00,
2013-06-13 03:36:00,53.6,52.0,29.76,West,278,0.0,1.0,93,0.00,,,0.04,weatherlink.com 1.10,2013-06-13 07:36:00,
2013-06-13 03:51:00,53.7,52.0,29.76,NNE,12,0.0,1.0,93,0.00,,,0.04,weatherlink.com 1.10,2013-06-13 07:51:00,
2013-06-13 04:06:00,53.6,52.0,29.76,NNE,16,0.0,1.0,94,0.00,,,0.04,weatherlink.com 1.10,2013-06-13 08:06:00,
2013-06-13 04:21:00,53.5,52.0,29.77,North,5,2.0,2.0,94,0.00,,,0.04,weatherlink.com 1.10,2013-06-13 08:21:00,
2013-06-13 04:36:00,53.6,52.0,29.77,North,349,2.0,2.0,94,0.00,,,0.04,weatherlink.com 1.10,2013-06-13 08:36:00,
2013-06-13 04:52:00,53.3,52.0,29.77,North,10,1.0,4.0,94,0.00,,,0.04,weatherlink.com 1.10,2013-06-13 08:52:00,
2013-06-13 05:06:00,53.2,52.0,29.78,SSE,150,0.0,1.0,94,0.00,,,0.04,weatherlink.com 1.10,2013-06-13 09:06:00,
2013-06-13 05:22:00,52.9,52.0,29.79,SSE,150,0.0,1.0,95,0.00,,,0.04,weatherlink.com 1.10,2013-06-13 09:22:00,
2013-06-13 05:37:00,53.0,52.0,29.78,WNW,290,0.0,1.0,95,0.00,,,0.04,weatherlink.com 1.10,2013-06-13 09:37:00,
2013-06-13 05:52:00,53.1,52.0,29.78,NE,40,0.0,2.0,95,0.00,,,0.04,weatherlink.com 1.10,2013-06-13 09:52:00,
2013-06-13 06:07:00,53.3,52.0,29.79,NNW,337,0.0,1.0,94,0.00,,,0.04,weatherlink.com 1.10,2013-06-13 10:07:00,
2013-06-13 06:22:00,53.8,52.0,29.80,NNW,339,0.0,0.0,94,0.00,,,0.04,weatherlink.com 1.10,2013-06-13 10:22:00,
2013-06-13 06:37:00,54.0,53.0,29.79,NNW,339,0.0,0.0,95,0.00,,,0.04,weatherlink.com 1.10,2013-06-13 10:37:00,
2013-06-13 06:52:00,54.1,53.0,29.79,WSW,246,0.0,4.0,94,0.00,,,0.04,weatherlink.com 1.10,2013-06-13 10:52:00,
2013-06-13 07:07:00,54.4,53.0,29.80,West,264,0.0,1.0,94,0.00,,,0.04,weatherlink.com 1.10,2013-06-13 11:07:00,
2013-06-13 07:22:00,55.0,53.0,29.80,West,264,0.0,0.0,93,0.00,,,0.04,weatherlink.com 1.10,2013-06-13 11:22:00,
2013-06-13 07:37:00,55.5,54.0,29.79,West,264,0.0,0.0,93,0.00,,,0.04,weatherlink.com 1.10,2013-06-13 11:37:00,
2013-06-13 07:52:00,56.0,54.0,29.79,NE,37,0.0,1.0,91,0.00,,,0.04,weatherlink.com 1.10,2013-06-13 11:52:00,
2013-06-13 08:07:00,56.8,55.0,29.80,NE,38,0.0,1.0,92,0.00,,,0.04,weatherlink.com 1.10,2013-06-13 12:07:00,
2013-06-13 08:22:00,57.6,54.0,29.79,SSE,160,0.0,2.0,89,0.00,,,0.04,weatherlink.com 1.10,2013-06-13 12:22:00,
2013-06-13 08:37:00,58.1,54.0,29.79,NW,304,0.0,1.0,87,0.00,,,0.04,weatherlink.com 1.10,2013-06-13 12:37:00,
2013-06-13 08:52:00,59.0,55.0,29.79,North,5,0.0,1.0,85,0.00,,,0.04,weatherlink.com 1.10,2013-06-13 12:52:00,
2013-06-13 09:07:00,60.2,54.0,29.79,NW,309,0.0,1.0,81,0.00,,,0.04,weatherlink.com 1.10,2013-06-13 13:07:00,
2013-06-13 09:22:00,61.1,55.0,29.79,West,277,0.0,1.0,80,0.00,,,0.04,weatherlink.com 1.10,2013-06-13 13:22:00,
2013-06-13 09:37:00,62.2,55.0,29.79,NNW,333,0.0,1.0,77,0.00,,,0.04,weatherlink.com 1.10,2013-06-13 13:37:00,
2013-06-13 09:52:00,62.5,54.0,29.79,North,5,0.0,2.0,74,0.00,,,0.04,weatherlink.com 1.10,2013-06-13 13:52:00,
2013-06-13 10:07:00,63.5,54.0,29.78,NNE,28,1.0,4.0,72,0.00,,,0.04,weatherlink.com 1.10,2013-06-13 14:07:00,
2013-06-13 10:22:00,63.5,54.0,29.78,ENE,58,1.0,2.0,72,0.00,,,0.04,weatherlink.com 1.10,2013-06-13 14:22:00,
2013-06-13 10:37:00,64.2,55.0,29.79,NW,321,0.0,2.0,72,0.00,,,0.04,weatherlink.com 1.10,2013-06-13 14:37:00,
2013-06-13 10:52:00,64.7,55.0,29.79,WNW,290,8.0,8.0,71,0.00,,,0.04,weatherlink.com 1.10,2013-06-13 14:52:00,
2013-06-13 11:07:00,63.1,54.0,29.79,West,270,0.0,9.0,71,0.00,,,0.04,weatherlink.com 1.10,2013-06-13 15:07:00,
2013-06-13 11:22:00,64.3,54.0,29.79,WNW,294,4.0,6.0,69,0.00,,,0.04,weatherlink.com 1.10,2013-06-13 15:22:00,
2013-06-13 11:37:00,65.2,54.0,29.79,ESE,111,1.0,7.0,67,0.00,,,0.04,weatherlink.com 1.10,2013-06-13 15:37:00,
2013-06-13 11:52:00,66.2,54.0,29.79,SE,128,1.0,5.0,66,0.00,,,0.04,weatherlink.com 1.10,2013-06-13 15:52:00,
2013-06-13 12:07:00,66.7,54.0,29.79,West,269,3.0,7.0,65,0.00,,,0.04,weatherlink.com 1.10,2013-06-13 16:07:00,
2013-06-13 12:22:00,66.9,55.0,29.79,SW,231,4.0,7.0,65,0.00,,,0.04,weatherlink.com 1.10,2013-06-13 16:22:00,
2013-06-13 12:37:00,67.0,55.0,29.78,SSE,168,0.0,6.0,66,0.00,,,0.04,weatherlink.com 1.10,2013-06-13 16:37:00,
2013-06-13 12:52:00,67.3,55.0,29.78,SSE,165,1.0,6.0,64,0.00,,,0.04,weatherlink.com 1.10,2013-06-13 16:52:00,
2013-06-13 13:07:00,66.3,53.0,29.78,WSW,254,1.0,6.0,62,0.00,,,0.04,weatherlink.com 1.10,2013-06-13 17:07:00,
2013-06-13 13:22:00,66.2,53.0,29.78,SSE,165,0.0,6.0,63,0.00,,,0.04,weatherlink.com 1.10,2013-06-13 17:22:00,
2013-06-13 13:37:00,66.4,54.0,29.78,ESE,105,2.0,6.0,64,0.00,,,0.04,weatherlink.com 1.10,2013-06-13 17:37:00,
2013-06-13 13:53:00,65.6,53.0,29.78,West,281,1.0,5.0,65,0.00,,,0.04,weatherlink.com 1.10,2013-06-13 17:53:00,
2013-06-13 14:07:00,64.9,54.0,29.78,SSE,157,2.0,7.0,67,0.00,,,0.04,weatherlink.com 1.10,2013-06-13 18:07:00,
2013-06-13 14:22:00,64.4,53.0,29.77,SE,139,2.0,5.0,66,0.00,,,0.04,weatherlink.com 1.10,2013-06-13 18:22:00,
2013-06-13 14:37:00,62.5,53.0,29.77,West,279,7.0,11.0,70,0.00,,,0.04,weatherlink.com 1.10,2013-06-13 18:37:00,
2013-06-13 14:53:00,61.3,53.0,29.77,WSW,248,5.0,9.0,74,0.00,,,0.04,weatherlink.com 1.10,2013-06-13 18:53:00,
2013-06-13 15:08:00,60.8,53.0,29.77,WNW,296,2.0,8.0,75,0.00,,,0.04,weatherlink.com 1.10,2013-06-13 19:08:00,
2013-06-13 15:23:00,60.9,53.0,29.77,SSW,196,6.0,8.0,74,0.00,,,0.04,weatherlink.com 1.10,2013-06-13 19:23:00,
2013-06-13 15:38:00,61.3,52.0,29.77,SW,236,0.0,3.0,71,0.00,,,0.04,weatherlink.com 1.10,2013-06-13 19:38:00,
2013-06-13 15:53:00,61.2,51.0,29.77,SSE,152,2.0,2.0,70,0.00,,,0.04,weatherlink.com 1.10,2013-06-13 19:53:00,
2013-06-13 16:08:00,61.0,52.0,29.77,WSW,257,0.0,5.0,71,0.00,,,0.04,weatherlink.com 1.10,2013-06-13 20:08:00,
2013-06-13 16:23:00,60.8,51.0,29.76,WSW,254,0.0,5.0,69,0.00,,,0.04,weatherlink.com 1.10,2013-06-13 20:23:00,
2013-06-13 16:38:00,60.8,52.0,29.76,SSE,155,0.0,5.0,72,0.00,,,0.04,weatherlink.com 1.10,2013-06-13 20:38:00,
2013-06-13 16:53:00,60.5,52.0,29.76,WNW,284,4.0,5.0,74,0.00,,,0.04,weatherlink.com 1.10,2013-06-13 20:53:00,
2013-06-13 17:08:00,60.0,52.0,29.76,West,275,0.0,5.0,76,0.00,,,0.04,weatherlink.com 1.10,2013-06-13 21:08:00,
2013-06-13 17:23:00,59.8,53.0,29.76,West,276,6.0,7.0,78,0.00,,,0.04,weatherlink.com 1.10,2013-06-13 21:23:00,
2013-06-13 17:38:00,59.6,53.0,29.77,West,281,3.0,7.0,79,0.00,,,0.04,weatherlink.com 1.10,2013-06-13 21:38:00,
2013-06-13 17:53:00,59.6,53.0,29.77,WNW,286,5.0,8.0,78,0.00,,,0.04,weatherlink.com 1.10,2013-06-13 21:53:00,
2013-06-13 18:08:00,59.4,53.0,29.77,WSW,244,8.0,10.0,79,0.00,,,0.04,weatherlink.com 1.10,2013-06-13 22:08:00,
2013-06-13 18:23:00,58.6,52.0,29.77,WSW,242,2.0,8.0,80,0.00,,,0.04,weatherlink.com 1.10,2013-06-13 22:23:00,
2013-06-13 18:38:00,58.5,53.0,29.77,SW,222,0.0,6.0,81,0.00,,,0.04,weatherlink.com 1.10,2013-06-13 22:38:00,
2013-06-13 18:53:00,58.4,52.0,29.77,West,275,0.0,5.0,80,0.00,,,0.04,weatherlink.com 1.10,2013-06-13 22:53:00,
2013-06-13 19:08:00,58.1,52.0,29.77,SW,215,2.0,7.0,79,0.00,,,0.04,weatherlink.com 1.10,2013-06-13 23:08:00,
2013-06-13 19:23:00,57.8,52.0,29.78,SSW,213,0.0,5.0,81,0.00,,,0.04,weatherlink.com 1.10,2013-06-13 23:23:00,
2013-06-13 19:38:00,57.4,52.0,29.78,WSW,250,0.0,6.0,82,0.00,,,0.04,weatherlink.com 1.10,2013-06-13 23:38:00,
2013-06-13 19:53:00,57.1,52.0,29.78,SSE,150,0.0,2.0,83,0.00,,,0.04,weatherlink.com 1.10,2013-06-13 23:53:00,
2013-06-13 20:08:00,56.7,52.0,29.79,West,281,0.0,2.0,85,0.00,,,0.04,weatherlink.com 1.10,2013-06-14 00:08:00,
2013-06-13 20:23:00,56.6,53.0,29.79,WSW,256,0.0,4.0,87,0.00,,,0.04,weatherlink.com 1.10,2013-06-14 00:23:00,
2013-06-13 20:38:00,56.3,53.0,29.80,SW,218,0.0,2.0,89,0.00,,,0.04,weatherlink.com 1.10,2013-06-14 00:38:00,
2013-06-13 20:53:00,56.1,53.0,29.80,SSE,153,0.0,1.0,89,0.00,,,0.04,weatherlink.com 1.10,2013-06-14 00:53:00,
2013-06-13 21:08:00,55.8,53.0,29.80,SW,222,0.0,1.0,90,0.00,,,0.04,weatherlink.com 1.10,2013-06-14 01:08:00,
2013-06-13 21:23:00,55.7,53.0,29.80,SSW,205,0.0,2.0,90,0.00,,,0.04,weatherlink.com 1.10,2013-06-14 01:23:00,
2013-06-13 21:38:00,55.5,53.0,29.80,SSW,205,0.0,1.0,91,0.00,,,0.04,weatherlink.com 1.10,2013-06-14 01:38:00,
2013-06-13 21:53:00,55.1,53.0,29.79,SSE,157,0.0,1.0,91,0.00,,,0.04,weatherlink.com 1.10,2013-06-14 01:53:00,
2013-06-13 22:08:00,54.9,52.0,29.79,SSE,157,0.0,0.0,91,0.00,,,0.04,weatherlink.com 1.10,2013-06-14 02:08:00,
2013-06-13 22:23:00,54.6,52.0,29.78,SSE,159,0.0,1.0,91,0.00,,,0.04,weatherlink.com 1.10,2013-06-14 02:23:00,
2013-06-13 22:38:00,54.4,52.0,29.78,SSE,157,0.0,0.0,91,0.00,,,0.04,weatherlink.com 1.10,2013-06-14 02:38:00,
2013-06-13 22:53:00,54.2,52.0,29.77,SE,146,0.0,1.0,92,0.00,,,0.04,weatherlink.com 1.10,2013-06-14 02:53:00,
2013-06-13 23:08:00,54.1,52.0,29.77,SSE,150,0.0,1.0,92,0.00,,,0.04,weatherlink.com 1.10,2013-06-14 03:08:00,
2013-06-13 23:23:00,54.1,52.0,29.77,SSE,150,0.0,1.0,92,0.00,,,0.04,weatherlink.com 1.10,2013-06-14 03:23:00,
2013-06-13 23:38:00,53.8,52.0,29.77,SSE,150,0.0,0.0,92,0.00,,,0.04,weatherlink.com 1.10,2013-06-14 03:38:00,
2013-06-13 23:53:00,53.7,52.0,29.77,SSE,151,0.0,0.0,93,0.00,,,0.04,weatherlink.com 1.10,2013-06-14 03:53:00,